{"data":{"norad_id":52854,"intl_designator":"2022-062AA","name":"STARLINK-4204","alt_names":[],"object_type":"PAYLOAD","status":"ACTIVE","operator":null,"country":"US","launch_date":"2022-06-17","launch_site_code":"AFETR","launch_vehicle":null,"mission":null,"orbit_class":"UNKNOWN","rcs_meters":null,"size_class":null,"mass_kg":null,"dimensions":null,"purposes":["comms"],"wikipedia_slug":null,"has_3d_model":false,"image_url":null,"decayed_at":null,"tle_current":{"epoch":"2026-09-20T04:00:03.000096Z","epoch_age_seconds":97708,"freshness":"FRESH","line1":"1 52854U 22062AA  26263.16670139 -.00007200  00000+0 -20220-3 0  9997","line2":"2 52854  53.1599 218.9298 0001180  91.3104 332.3023 15.34393564  5863","mean_motion":15.34393564,"eccentricity":0.000118,"inclination_deg":53.1599,"raan_deg":218.9298,"arg_perigee_deg":91.3104,"mean_anomaly_deg":332.3023,"bstar":-0.0002022,"rev_number":586,"period_min":93.848151724912,"perigee_km":461.9151480167,"apogee_km":463.52959082789,"semimajor_km":6840.8593694223,"source":"CELESTRAK","updated_at":"2026-09-20T09:00:40.115505Z"}}}